"startDT [UTC]","vpos","CH4 [ppm]","stdev(CH4) [ppm]","CO2 [ppm]","stdev(CO2) [ppm]","H2O [ppm]","stdev(H2O)","p_LGR [torr]","T_LGR [C]","mt1_LGR [us]","mt2_LGR [us]","T_ECpre [C]","T_EC1 [C]","T_EC2 [C]","p_inlet [hPa]","p_in [hPa]","p_out [hPa]","T_inlet [C]","RH_inlet [%]","dwpt_inlet [C]","T_vent [C]","RH_vent [%]","dwpt_vent [C]","flow_vent [l min-1]","flow_inlet [l min-1]","dwpt_sample [C]","T_room [C]"
2012-05-03 00:00:00,0.0,1.9102,0.0011,403.37,0.29,192.4,37.0,138.12,28.24,24.61,36.32,0.04,-272.74,-272.74,-54,558,-933,22.6,4.5,-20.1,22.8,4.7,-19.6,5.73,2.45,-24.7,28.1
2012-05-03 00:01:00,0.0,1.9103,0.0008,403.53,0.35,192.3,41.2,138.12,28.24,24.61,36.32,0.04,-272.74,-272.74,-54,558,-933,22.7,4.5,-20.2,22.8,4.6,-19.7,5.73,2.32,-24.7,28.1
2012-05-03 00:02:00,0.0,1.9108,0.0009,403.50,0.38,195.6,37.6,138.12,28.25,24.61,36.32,0.04,-272.73,-272.74,-54,559,-933,22.7,4.4,-20.3,22.8,4.6,-19.8,5.73,2.33,-24.7,28.1
2012-05-03 00:03:00,0.0,1.9107,0.0011,403.52,0.39,210.9,37.5,138.12,28.25,24.61,36.32,0.04,-272.73,-272.74,-54,558,-932,22.7,4.4,-20.4,22.9,4.5,-19.9,5.73,2.45,-24.7,28.1
2012-05-03 00:04:00,0.0,1.9102,0.0008,403.38,0.32,196.2,35.0,138.12,28.25,24.62,36.32,0.04,-272.74,-272.74,-54,559,-933,22.7,4.4,-20.5,22.9,4.5,-20.0,5.73,2.35,-24.6,28.2
2012-05-03 00:05:00,0.0,1.9104,0.0010,403.29,0.31,201.0,43.0,138.12,28.26,24.61,36.33,0.04,-272.73,-272.74,-54,559,-933,22.7,4.4,-20.4,22.9,4.5,-20.0,5.73,2.30,-24.6,28.2
2012-05-03 00:06:00,0.0,1.9106,0.0009,403.41,0.40,206.7,35.6,138.12,28.26,24.62,36.32,0.04,-272.74,-272.74,-54,559,-933,22.7,4.4,-20.3,22.9,4.5,-19.9,5.73,2.44,-24.6,28.2
2012-05-03 00:07:00,0.0,1.9114,0.0012,403.57,0.34,202.0,34.8,138.12,28.27,24.62,36.32,0.04,-272.74,-272.74,-54,559,-933,22.8,4.4,-20.4,22.9,4.5,-19.9,5.73,2.39,-24.5,28.2
2012-05-03 00:08:00,0.0,1.9117,0.0010,403.48,0.36,205.0,34.5,138.12,28.27,24.61,36.32,0.04,-272.74,-272.74,-54,559,-933,22.8,4.3,-20.5,22.9,4.5,-20.1,5.73,2.29,-24.5,28.2
2012-05-03 00:09:00,0.0,1.9142,0.0019,403.47,0.31,210.3,43.6,138.11,28.28,24.62,36.33,0.04,-272.74,-272.73,-54,559,-933,22.8,4.3,-20.6,22.9,4.4,-20.2,5.73,2.41,-24.5,28.3
2012-05-03 00:10:00,0.0,1.9163,0.0009,403.41,0.33,210.7,40.3,138.12,28.28,24.62,36.33,0.04,-272.74,-272.74,-54,559,-933,22.8,4.2,-20.8,23.0,4.3,-20.4,5.73,2.42,-24.5,28.3
2012-05-03 00:11:00,0.0,1.9166,0.0009,403.50,0.35,220.2,43.4,138.11,28.28,24.62,36.33,0.04,-272.74,-272.74,-54,559,-933,22.9,4.1,-21.0,23.0,4.3,-20.5,5.73,2.29,-24.5,28.3
2012-05-03 00:12:00,0.0,1.9172,0.0011,403.50,0.38,216.3,41.2,138.11,28.29,24.62,36.32,0.04,-272.74,-272.73,-54,559,-933,22.9,4.1,-21.2,23.0,4.2,-20.7,5.73,2.37,-24.4,28.3
2012-05-03 00:13:00,0.0,1.9169,0.0009,403.48,0.41,209.7,39.6,138.11,28.29,24.62,36.32,0.04,-272.74,-272.73,-54,560,-933,22.9,4.0,-21.4,23.0,4.1,-20.9,5.73,2.45,-24.4,28.3
2012-05-03 00:14:00,0.0,1.9175,0.0010,403.48,0.48,213.2,38.0,138.11,28.29,24.61,36.33,0.04,-272.74,-272.74,-54,560,-933,22.9,3.9,-21.6,23.0,4.0,-21.1,5.73,2.31,-24.4,28.4
2012-05-03 00:15:00,0.0,1.9169,0.0010,403.44,0.42,214.5,37.2,138.11,28.30,24.62,36.33,0.04,-272.74,-272.74,-54,560,-933,22.9,3.8,-21.8,23.1,4.0,-21.3,5.73,2.33,-24.4,28.4
2012-05-03 00:16:00,0.0,1.9176,0.0010,403.49,0.35,212.4,40.3,138.11,28.30,24.61,36.32,0.04,-272.74,-272.74,-54,560,-933,22.9,3.8,-21.9,23.1,3.9,-21.4,5.73,2.45,-24.4,28.5
2012-05-03 00:17:00,0.0,1.9173,0.0009,403.50,0.31,212.5,41.8,138.11,28.31,24.62,36.33,0.04,-272.73,-272.74,-54,560,-933,22.9,3.8,-21.9,23.1,3.9,-21.4,5.73,2.36,-24.3,28.5
2012-05-03 00:18:00,0.0,1.9173,0.0010,403.43,0.38,220.4,36.6,138.11,28.31,24.62,36.33,0.04,-272.73,-272.74,-54,560,-933,23.0,3.8,-21.9,23.1,3.9,-21.5,5.73,2.29,-24.3,28.5
2012-05-03 00:19:00,0.0,1.9176,0.0010,403.35,0.43,228.6,37.0,138.11,28.32,24.62,36.33,0.04,-272.74,-272.74,-54,560,-933,23.0,3.7,-22.0,23.1,3.9,-21.5,5.73,2.42,-24.3,28.4
2012-05-03 00:20:00,0.0,1.9180,0.0011,403.41,0.39,222.3,37.8,138.11,28.33,24.62,36.33,0.04,-272.74,-272.73,-54,560,-933,23.0,3.7,-22.0,23.1,3.9,-21.6,5.73,2.41,-24.3,28.5
2012-05-03 00:21:00,0.0,1.9196,0.0011,403.48,0.43,215.3,40.8,138.11,28.33,24.62,36.32,0.04,-272.74,-272.74,-54,561,-933,23.0,3.7,-22.2,23.2,3.8,-21.7,5.73,2.29,-24.3,28.4
2012-05-03 00:22:00,0.0,1.9200,0.0012,403.48,0.40,226.5,41.4,138.11,28.34,24.62,36.33,0.04,-272.74,-272.74,-54,560,-933,23.1,3.7,-22.2,23.2,3.8,-21.7,5.73,2.36,-24.3,28.4
2012-05-03 00:23:00,0.0,1.9201,0.0012,403.25,0.37,213.9,35.6,138.11,28.34,24.62,36.33,0.04,-272.73,-272.74,-54,561,-933,23.0,3.7,-22.2,23.2,3.8,-21.8,5.73,2.44,-24.3,28.5
2012-05-03 00:24:00,0.0,1.9215,0.0013,403.37,0.39,232.3,32.9,138.11,28.35,24.61,36.33,0.04,-272.74,-272.74,-54,561,-933,23.1,3.7,-22.2,23.2,3.8,-21.8,5.73,2.33,-24.3,28.5
2012-05-03 00:25:00,0.0,1.9220,0.0010,403.36,0.31,224.0,42.1,138.11,28.35,24.62,36.33,0.04,-272.74,-272.74,-54,561,-933,23.1,3.6,-22.3,23.2,3.7,-21.9,5.73,2.31,-24.2,28.6
2012-05-03 00:26:00,0.0,1.9221,0.0010,403.48,0.45,227.7,39.9,138.11,28.36,24.62,36.33,0.04,-272.74,-272.74,-54,561,-933,23.1,3.6,-22.3,23.2,3.7,-21.9,5.73,2.44,-24.2,28.5
2012-05-03 00:27:00,0.0,1.9227,0.0009,403.50,0.42,223.0,40.8,138.11,28.37,24.62,36.33,0.04,-272.74,-272.74,-54,561,-933,23.1,3.6,-22.3,23.2,3.7,-21.9,5.73,2.39,-24.2,28.6
2012-05-03 00:28:00,0.0,1.9226,0.0011,403.37,0.42,240.5,39.0,138.11,28.37,24.62,36.33,0.04,-272.74,-272.73,-54,561,-933,23.1,3.6,-22.2,23.3,3.7,-21.9,5.73,2.29,-24.2,28.6
2012-05-03 00:29:00,0.0,1.9224,0.0010,403.38,0.39,225.0,31.1,138.11,28.38,24.62,36.33,0.04,-272.73,-272.74,-54,561,-933,23.1,3.6,-22.2,23.3,3.7,-21.9,5.73,2.44,-24.2,28.0
2012-05-03 00:30:00,0.0,1.9223,0.0011,403.55,0.40,218.5,40.4,138.11,28.38,24.62,36.33,0.04,-272.73,-272.74,-54,561,-933,23.1,3.6,-22.3,23.2,3.7,-21.9,5.73,2.28,-24.4,27.5
2012-05-03 00:31:00,0.0,1.9219,0.0010,403.57,0.38,199.5,39.9,138.12,28.37,24.62,36.33,0.04,-272.73,-272.74,-54,561,-934,23.1,3.6,-22.3,23.2,3.8,-21.9,5.73,2.45,-24.6,26.9
2012-05-03 00:32:00,0.0,1.9210,0.0011,403.54,0.45,182.0,40.0,138.12,28.36,24.62,36.33,0.04,-272.74,-272.74,-54,561,-934,23.0,3.7,-22.2,23.1,3.8,-21.9,5.73,2.44,-24.9,26.4
2012-05-03 00:33:00,0.0,1.9204,0.0010,403.71,0.34,162.7,44.3,138.13,28.34,24.62,36.32,0.04,-272.73,-272.73,-54,561,-934,23.0,3.7,-22.2,23.0,3.8,-21.8,5.73,2.38,-25.1,26.1
2012-05-03 00:34:00,0.0,1.9199,0.0010,403.74,0.35,142.9,37.1,138.14,28.32,24.62,36.32,0.04,-272.74,-272.74,-55,561,-934,22.9,3.7,-22.1,22.9,3.8,-21.7,5.73,2.35,-25.2,25.9
2012-05-03 00:35:00,0.0,1.9193,0.0010,403.65,0.31,127.8,41.1,138.14,28.30,24.61,36.32,0.04,-272.73,-272.74,-55,560,-934,22.9,3.7,-22.1,22.9,3.9,-21.7,5.73,2.35,-25.4,25.7
2012-05-03 00:36:00,0.0,1.9183,0.0010,403.51,0.37,116.9,35.4,138.15,28.27,24.61,36.32,0.04,-272.73,-272.74,-55,560,-934,22.8,3.7,-22.2,22.8,3.9,-21.8,5.73,2.36,-25.6,25.5
2012-05-03 00:37:00,0.0,1.9172,0.0010,403.46,0.39,104.9,37.7,138.15,28.24,24.61,36.31,0.04,-272.74,-272.74,-55,559,-934,22.7,3.8,-22.2,22.7,3.9,-21.8,5.73,2.36,-25.6,25.5
2012-05-03 00:38:00,0.0,1.9165,0.0010,403.44,0.33,91.5,38.5,138.16,28.21,24.61,36.31,0.04,-272.74,-272.74,-55,559,-933,22.7,3.8,-22.2,22.6,3.9,-21.8,5.73,2.37,-25.8,26.1
2012-05-03 00:39:00,0.0,1.9166,0.0009,403.42,0.41,107.2,33.5,138.15,28.19,24.61,36.31,0.04,-272.73,-272.73,-55,558,-933,22.6,3.8,-22.2,22.6,3.9,-21.8,5.73,2.49,-25.8,26.5
2012-05-03 00:40:00,0.0,1.9162,0.0010,403.28,0.38,101.9,39.7,138.15,28.17,24.61,36.32,0.04,-272.74,-272.74,-55,558,-933,22.5,3.8,-22.1,22.6,3.9,-21.7,5.73,2.26,-25.7,26.8
2012-05-03 00:41:00,0.0,1.9167,0.0010,403.29,0.42,115.3,38.0,138.15,28.15,24.61,36.32,0.04,-272.74,-272.74,-54,558,-933,22.5,3.9,-22.0,22.6,3.9,-21.7,5.73,2.48,-25.6,26.9
2012-05-03 00:42:00,0.0,1.9165,0.0010,403.32,0.35,118.1,39.6,138.14,28.14,24.61,36.32,0.04,-272.74,-272.73,-55,558,-933,22.4,3.8,-22.1,22.5,3.9,-21.7,5.73,2.27,-25.6,27.0
2012-05-03 00:43:00,0.0,1.9166,0.0011,403.44,0.31,130.4,34.3,138.14,28.13,24.61,36.31,0.04,-272.73,-272.74,-54,558,-933,22.4,3.8,-22.1,22.5,3.9,-21.7,5.73,2.47,-25.5,27.2
2012-05-03 00:44:00,0.0,1.9175,0.0010,403.30,0.36,125.4,39.6,138.14,28.13,24.61,36.32,0.04,-272.74,-272.73,-55,558,-933,22.4,3.9,-22.1,22.5,4.0,-21.7,5.73,2.31,-25.4,27.2
2012-05-03 00:45:00,0.0,1.9179,0.0011,403.30,0.36,141.8,42.0,138.14,28.12,24.61,36.32,0.04,-272.74,-272.74,-54,557,-933,22.3,3.9,-22.1,22.5,4.0,-21.6,5.73,2.38,-25.4,27.3
2012-05-03 00:46:00,0.0,1.9184,0.0010,403.24,0.35,140.5,39.7,138.14,28.12,24.61,36.31,0.04,-272.74,-272.74,-54,557,-933,22.3,3.9,-22.0,22.5,4.0,-21.5,5.73,2.42,-25.3,27.3
2012-05-03 00:47:00,0.0,1.9188,0.0010,403.25,0.34,138.6,41.5,138.13,28.12,24.61,36.31,0.04,-272.74,-272.73,-54,558,-933,22.3,3.9,-22.0,22.5,4.0,-21.6,5.73,2.29,-25.3,27.3
2012-05-03 00:48:00,0.0,1.9187,0.0011,403.26,0.39,154.2,48.9,138.13,28.12,24.61,36.32,0.04,-272.73,-272.74,-52,558,-932,22.3,3.9,-22.0,22.5,4.0,-21.6,5.73,2.47,-25.2,27.4
2012-05-03 00:49:00,0.0,1.9199,0.0010,403.32,0.34,151.0,42.6,138.13,28.12,24.61,36.31,0.04,-272.74,-272.73,-54,557,-933,22.3,3.9,-21.9,22.5,4.0,-21.5,5.73,2.31,-25.2,27.4
2012-05-03 00:50:00,0.0,1.9200,0.0010,403.07,0.35,158.0,38.5,138.13,28.13,24.61,36.32,0.04,-272.73,-272.74,-54,557,-932,22.3,4.0,-21.8,22.5,4.1,-21.4,5.73,2.39,-25.2,27.4
2012-05-03 00:51:00,0.0,1.9206,0.0012,403.24,0.38,149.7,44.5,138.13,28.13,24.61,36.31,0.04,-272.73,-272.74,-54,557,-933,22.3,4.0,-21.8,22.5,4.1,-21.4,5.73,2.43,-25.1,27.5
2012-05-03 00:52:00,0.0,1.9210,0.0010,403.28,0.38,168.1,33.4,138.13,28.13,24.61,36.32,0.04,-272.74,-272.74,-54,557,-932,22.3,4.0,-21.9,22.5,4.1,-21.4,5.73,2.28,-25.1,27.5
2012-05-03 00:53:00,0.0,1.9211,0.0010,403.21,0.31,159.3,34.9,138.13,28.14,24.61,36.32,0.04,-272.74,-272.74,-54,557,-932,22.3,4.0,-21.8,22.5,4.1,-21.4,5.73,2.47,-25.0,27.6
2012-05-03 00:54:00,0.0,1.9215,0.0011,403.23,0.39,169.3,38.9,138.13,28.14,24.61,36.31,0.04,-272.74,-272.74,-53,557,-932,22.3,4.0,-21.7,22.5,4.1,-21.3,5.73,2.33,-25.0,27.6
2012-05-03 00:55:00,0.0,1.9212,0.0009,403.28,0.42,174.6,39.6,138.12,28.14,24.61,36.32,0.04,-272.74,-272.74,-54,557,-932,22.3,4.0,-21.8,22.5,4.1,-21.3,5.73,2.34,-25.0,27.6
2012-05-03 00:56:00,0.0,1.9214,0.0009,403.16,0.39,173.3,42.6,138.13,28.15,24.61,36.32,0.04,-272.74,-272.73,-53,557,-933,22.3,4.0,-21.8,22.5,4.1,-21.3,5.73,2.46,-24.9,27.7
2012-05-03 00:57:00,0.0,1.9220,0.0009,403.12,0.30,169.1,39.5,138.12,28.15,24.61,36.32,0.04,-272.74,-272.74,-53,557,-931,22.3,4.0,-21.8,22.6,4.1,-21.3,5.73,2.28,-24.9,27.7
2012-05-03 00:58:00,0.0,1.9216,0.0011,403.20,0.35,177.0,37.4,138.12,28.16,24.61,36.32,0.04,-272.74,-272.74,-51,558,-932,22.4,4.0,-21.8,22.6,4.1,-21.3,5.73,2.41,-24.9,27.8
2012-05-03 00:59:00,0.0,1.9216,0.0009,403.20,0.31,187.6,30.4,138.12,28.16,24.61,36.32,0.04,-272.73,-272.74,-54,557,-932,22.4,4.0,-21.7,22.6,4.1,-21.2,5.73,2.42,-24.8,27.8
2012-05-03 01:00:00,0.0,1.9215,0.0013,403.12,0.33,190.0,37.0,138.12,28.17,24.62,36.32,0.04,-272.74,-272.74,-54,557,-932,22.4,4.0,-21.7,22.6,4.1,-21.2,5.73,2.28,-24.8,27.9
2012-05-03 01:01:00,0.0,1.9224,0.0009,403.10,0.31,189.4,37.4,138.12,28.17,24.61,36.32,0.04,-272.74,-272.74,-53,557,-933,22.4,4.0,-21.7,22.7,4.1,-21.2,5.73,2.45,-24.8,27.9
2012-05-03 01:02:00,0.0,1.9220,0.0012,403.13,0.38,193.2,42.6,138.12,28.18,24.61,36.32,0.04,-272.74,-272.74,-54,557,-932,22.4,4.0,-21.7,22.7,4.1,-21.2,5.73,2.37,-24.7,27.9
2012-05-03 01:03:00,0.0,1.9217,0.0011,403.12,0.31,195.3,44.4,138.12,28.18,24.61,36.32,0.04,-272.74,-272.74,-54,557,-932,22.5,4.0,-21.7,22.7,4.1,-21.2,5.73,2.29,-24.7,28.0
2012-05-03 01:04:00,0.0,1.9222,0.0010,403.20,0.37,192.6,42.3,138.12,28.19,24.62,36.32,0.04,-272.74,-272.74,-53,558,-933,22.5,4.0,-21.6,22.7,4.1,-21.2,5.73,2.46,-24.7,28.0
2012-05-03 01:05:00,0.0,1.9221,0.0009,403.27,0.31,204.0,42.8,138.12,28.19,24.61,36.32,0.04,-272.74,-272.74,-54,557,-932,22.5,4.0,-21.6,22.7,4.1,-21.1,5.73,2.36,-24.7,28.0
2012-05-03 01:06:00,0.0,1.9226,0.0012,403.03,0.44,192.0,41.5,138.12,28.20,24.61,36.33,0.04,-272.74,-272.74,-53,558,-933,22.6,4.0,-21.6,22.8,4.1,-21.1,5.73,2.30,-24.6,28.1
2012-05-03 01:07:00,0.0,1.9224,0.0009,403.10,0.40,204.2,41.1,138.12,28.21,24.61,36.33,0.04,-272.74,-272.74,-54,558,-932,22.6,4.0,-21.6,22.8,4.1,-21.1,5.73,2.45,-24.6,28.1
2012-05-03 01:08:00,0.0,1.9224,0.0010,403.30,0.34,213.8,40.9,138.11,28.21,24.62,36.32,0.04,-272.74,-272.74,-54,558,-933,22.6,4.0,-21.6,22.8,4.1,-21.1,5.73,2.37,-24.6,28.1
2012-05-03 01:09:00,0.0,1.9227,0.0009,403.08,0.37,206.1,37.2,138.11,28.22,24.61,36.33,0.04,-272.74,-272.73,-53,558,-933,22.7,3.9,-21.7,22.8,4.1,-21.2,5.73,2.30,-24.6,28.2
2012-05-03 01:10:00,0.0,1.9223,0.0010,403.24,0.35,210.4,38.4,138.11,28.22,24.61,36.32,0.04,-272.74,-272.73,-54,558,-933,22.7,4.0,-21.6,22.8,4.1,-21.1,5.73,2.44,-24.6,28.2
2012-05-03 01:11:00,0.0,1.9213,0.0010,403.11,0.44,212.1,37.5,138.11,28.23,24.62,36.32,0.04,-272.73,-272.74,-54,558,-933,22.7,3.9,-21.7,22.9,4.0,-21.2,5.73,2.38,-24.5,28.3
2012-05-03 01:12:00,0.0,1.9222,0.0010,403.16,0.41,202.7,39.0,138.11,28.24,24.62,36.32,0.04,-272.74,-272.74,-54,559,-933,22.7,3.9,-21.7,22.9,4.0,-21.3,5.73,2.29,-24.5,28.3
2012-05-03 01:13:00,0.0,1.9221,0.0009,403.10,0.38,216.6,42.0,138.11,28.24,24.61,36.33,0.04,-272.74,-272.74,-54,558,-933,22.8,3.9,-21.7,22.9,4.0,-21.2,5.73,2.41,-24.5,28.3
2012-05-03 01:14:00,0.0,1.9227,0.0012,403.17,0.33,209.0,39.3,138.11,28.25,24.62,36.32,0.04,-272.73,-272.74,-53,559,-933,22.8,3.9,-21.6,22.9,4.0,-21.2,5.73,2.42,-24.5,28.3
2012-05-03 01:15:00,0.0,1.9229,0.0012,403.08,0.43,210.7,39.8,138.11,28.25,24.61,36.33,0.04,-272.74,-272.74,-54,559,-933,22.8,3.9,-21.5,23.0,4.1,-21.1,5.73,2.28,-24.5,28.4
2012-05-03 01:16:00,0.0,1.9222,0.0009,403.12,0.36,214.9,35.2,138.11,28.26,24.62,36.32,0.04,-272.74,-272.74,-54,559,-933,22.9,3.9,-21.6,23.0,4.0,-21.1,5.73,2.38,-24.4,28.4
2012-05-03 01:17:00,0.0,1.9224,0.0010,403.18,0.36,219.9,36.7,138.11,28.27,24.61,36.33,0.04,-272.74,-272.74,-53,559,-933,22.9,3.9,-21.6,23.0,4.0,-21.2,5.73,2.44,-24.4,28.5
2012-05-03 01:18:00,0.0,1.9219,0.0009,403.02,0.33,214.7,35.3,138.11,28.27,24.62,36.33,0.04,-272.74,-272.74,-54,559,-933,22.9,3.9,-21.7,23.0,4.0,-21.2,5.73,2.32,-24.4,28.5
2012-05-03 01:19:00,0.0,1.9215,0.0009,403.08,0.32,219.2,37.2,138.11,28.28,24.62,36.32,0.04,-272.74,-272.74,-54,559,-933,22.9,3.9,-21.6,23.1,4.0,-21.2,5.73,2.32,-24.4,28.5
2012-05-03 01:20:00,0.0,1.9213,0.0011,403.00,0.36,215.5,37.3,138.11,28.29,24.62,36.33,0.04,-272.74,-272.73,-54,560,-933,23.0,3.9,-21.6,23.1,4.0,-21.2,5.73,2.46,-24.4,28.4
2012-05-03 01:21:00,0.0,1.9212,0.0010,403.11,0.35,212.4,40.7,138.11,28.30,24.62,36.33,0.04,-272.74,-272.74,-54,560,-933,23.0,3.9,-21.6,23.1,4.0,-21.2,5.73,2.28,-24.5,27.4
2012-05-03 01:22:00,0.0,1.9212,0.0010,403.15,0.36,197.9,39.9,138.12,28.30,24.61,36.33,0.04,-272.74,-272.74,-54,560,-933,23.0,3.9,-21.6,23.1,4.0,-21.2,5.73,2.48,-24.7,27.0
2012-05-03 01:23:00,0.0,1.9209,0.0009,403.28,0.36,185.2,44.8,138.12,28.29,24.62,36.32,0.04,-272.73,-272.74,-54,560,-933,22.9,3.9,-21.6,23.0,4.0,-21.2,5.73,2.38,-24.9,26.6
2012-05-03 01:24:00,0.0,1.9196,0.0011,403.32,0.39,164.2,32.4,138.13,28.28,24.62,36.32,0.04,-272.73,-272.74,-54,560,-933,22.9,3.9,-21.6,22.9,4.0,-21.2,5.73,2.32,-25.1,26.4
2012-05-03 01:25:00,0.0,1.9190,0.0011,403.29,0.38,152.4,38.5,138.13,28.26,24.62,36.32,0.04,-272.74,-272.74,-54,560,-934,22.8,3.9,-21.5,22.8,4.1,-21.1,5.73,2.33,-25.3,26.0
2012-05-03 01:26:00,0.0,1.9190,0.0010,403.33,0.33,126.8,36.6,138.14,28.24,24.61,36.32,0.04,-272.74,-272.74,-54,559,-933,22.7,4.0,-21.5,22.8,4.1,-21.2,5.73,2.36,-25.5,25.8
2012-05-03 01:27:00,0.0,1.9178,0.0009,403.22,0.35,115.6,37.1,138.14,28.22,24.61,36.32,0.04,-272.74,-272.73,-55,559,-934,22.7,4.0,-21.4,22.7,4.1,-21.1,5.73,2.39,-25.7,25.6
2012-05-03 01:28:00,0.0,1.9163,0.0009,403.14,0.35,107.7,41.2,138.15,28.20,24.62,36.32,0.04,-272.74,-272.74,-55,559,-933,22.6,4.0,-21.5,22.6,4.2,-21.0,5.73,2.40,-25.8,25.5
2012-05-03 01:29:00,0.0,1.9151,0.0013,403.07,0.37,100.5,39.0,138.15,28.17,24.62,36.31,0.04,-272.74,-272.74,-55,559,-934,22.6,4.0,-21.5,22.6,4.2,-21.1,5.73,2.44,-25.9,25.6
2012-05-03 01:30:00,0.0,1.9149,0.0011,403.00,0.34,91.5,36.5,138.15,28.14,24.61,36.32,0.04,-272.74,-272.74,-55,558,-933,22.5,4.0,-21.4,22.5,4.2,-21.1,5.73,2.42,-26.0,26.1
2012-05-03 01:31:00,0.0,1.9150,0.0010,403.11,0.35,96.1,34.8,138.15,28.12,24.62,36.31,0.04,-272.74,-272.74,-55,557,-933,22.5,4.1,-21.4,22.5,4.2,-21.0,5.73,2.27,-25.9,26.5
2012-05-03 01:32:00,0.0,1.9148,0.0009,403.09,0.33,108.7,34.5,138.15,28.10,24.61,36.31,0.04,-272.74,-272.74,-54,557,-933,22.4,4.1,-21.4,22.5,4.2,-21.0,5.73,2.49,-25.9,26.8
2012-05-03 01:33:00,0.0,1.9147,0.0009,403.00,0.38,106.0,44.4,138.14,28.09,24.61,36.32,0.04,-272.73,-272.74,-55,557,-933,22.4,4.1,-21.4,22.5,4.2,-21.0,5.73,2.28,-25.8,27.0
2012-05-03 01:34:00,0.0,1.9149,0.0011,402.92,0.43,111.2,36.0,138.14,28.09,24.61,36.32,0.04,-272.74,-272.73,-54,557,-933,22.4,4.1,-21.3,22.5,4.3,-20.9,5.73,2.45,-25.7,27.1
2012-05-03 01:35:00,0.0,1.9153,0.0009,402.96,0.36,112.7,38.4,138.14,28.08,24.61,36.32,0.04,-272.74,-272.74,-54,557,-933,22.4,4.1,-21.3,22.5,4.3,-20.9,5.73,2.35,-25.7,27.1
2012-05-03 01:36:00,0.0,1.9153,0.0010,403.01,0.43,119.5,41.7,138.14,28.08,24.61,36.32,0.04,-272.73,-272.73,-54,557,-933,22.4,4.1,-21.3,22.5,4.3,-20.9,5.73,2.33,-25.6,27.2
2012-05-03 01:37:00,0.0,1.9151,0.0011,403.15,0.36,133.1,44.7,138.13,28.08,24.61,36.31,0.04,-272.73,-272.74,-54,557,-933,22.3,4.2,-21.2,22.5,4.3,-20.8,5.73,2.45,-25.6,27.3
2012-05-03 01:38:00,0.0,1.9154,0.0010,403.15,0.32,142.0,41.1,138.13,28.08,24.61,36.31,0.04,-272.74,-272.74,-55,560,-933,22.3,4.2,-21.2,22.5,4.3,-20.7,5.73,2.27,-25.5,27.3
2012-05-03 01:39:00,0.0,1.9156,0.0012,403.07,0.36,142.2,32.3,138.13,28.08,24.61,36.32,0.04,-272.74,-272.74,-54,557,-932,22.3,4.2,-21.2,22.5,4.3,-20.7,5.73,2.44,-25.5,27.4
2012-05-03 01:40:00,0.0,1.9158,0.0010,403.16,0.36,143.4,38.7,138.13,28.09,24.61,36.31,0.04,-272.73,-272.74,-54,557,-933,22.3,4.2,-21.1,22.5,4.3,-20.7,5.73,2.38,-25.4,27.4
2012-05-03 01:41:00,0.0,1.9160,0.0011,403.18,0.35,150.2,47.9,138.13,28.09,24.61,36.32,0.04,-272.74,-272.74,-54,557,-932,22.3,4.2,-21.2,22.5,4.3,-20.8,5.73,2.29,-25.4,27.4
2012-05-03 01:42:00,0.0,1.9162,0.0011,403.26,0.33,155.9,35.0,138.13,28.10,24.61,36.32,0.04,-272.74,-272.74,-54,557,-932,22.4,4.2,-21.2,22.6,4.3,-20.8,5.73,2.47,-25.3,27.5
2012-05-03 01:43:00,0.0,1.9163,0.0008,403.14,0.32,153.9,34.2,138.12,28.10,24.61,36.32,0.04,-272.73,-272.73,-54,557,-933,22.4,4.2,-21.2,22.6,4.3,-20.8,5.73,2.31,-25.3,27.6
2012-05-03 01:44:00,0.0,1.9171,0.0011,403.11,0.33,160.9,40.0,138.12,28.11,24.61,36.32,0.04,-272.73,-272.73,-54,557,-932,22.4,4.2,-21.1,22.6,4.3,-20.7,5.73,2.36,-25.2,27.6
2012-05-03 01:45:00,0.0,1.9170,0.0010,403.17,0.37,172.8,43.8,138.12,28.11,24.61,36.32,0.04,-272.74,-272.74,-54,557,-933,22.4,4.2,-21.2,22.6,4.3,-20.7,5.73,2.45,-25.2,27.7
2012-05-03 01:46:00,0.0,1.9172,0.0010,403.23,0.37,170.9,38.0,138.12,28.12,24.62,36.32,0.04,-272.74,-272.74,-54,557,-932,22.4,4.2,-21.2,22.6,4.3,-20.7,5.73,2.28,-25.2,27.7
2012-05-03 01:47:00,0.0,1.9172,0.0008,403.20,0.35,174.1,40.8,138.12,28.13,24.62,36.32,0.04,-272.73,-272.73,-54,562,-932,22.4,4.2,-21.2,22.6,4.3,-20.7,5.73,2.41,-25.1,27.8
2012-05-03 01:48:00,0.0,1.9176,0.0010,403.16,0.36,175.2,37.7,138.12,28.14,24.61,36.32,0.04,-272.74,-272.74,-54,557,-932,22.5,4.1,-21.2,22.7,4.2,-20.8,5.73,2.42,-25.1,27.8
2012-05-03 01:49:00,0.0,1.9173,0.0009,403.13,0.34,177.3,39.9,138.12,28.14,24.62,36.32,0.04,-272.74,-272.74,-54,557,-932,22.5,4.2,-21.2,22.7,4.3,-20.7,5.73,2.28,-25.0,27.9
2012-05-03 01:50:00,0.0,1.9178,0.0008,403.25,0.39,189.6,38.4,138.12,28.15,24.62,36.32,0.04,-272.74,-272.73,-54,557,-932,22.5,4.1,-21.3,22.7,4.3,-20.7,5.73,2.42,-25.0,27.9
2012-05-03 01:51:00,0.0,1.9181,0.0009,403.17,0.29,191.2,37.9,138.12,28.16,24.61,36.32,0.04,-272.74,-272.73,-54,557,-932,22.5,4.1,-21.2,22.7,4.3,-20.7,5.73,2.41,-24.9,28.0
2012-05-03 01:52:00,0.0,1.9180,0.0011,403.13,0.42,192.3,41.9,138.12,28.17,24.62,36.32,0.04,-272.74,-272.74,-54,558,-933,22.6,4.1,-21.2,22.7,4.3,-20.7,5.73,2.28,-24.9,28.0
2012-05-03 01:53:00,0.0,1.9181,0.0011,403.13,0.37,190.0,32.2,138.11,28.18,24.61,36.32,0.04,-272.74,-272.74,-54,557,-932,22.6,4.1,-21.3,22.8,4.2,-20.8,5.73,2.42,-24.8,28.1
2012-05-03 01:54:00,0.0,1.9184,0.0012,403.23,0.33,188.6,37.1,138.11,28.18,24.61,36.32,0.04,-272.73,-272.73,-54,558,-932,22.6,4.1,-21.2,22.8,4.2,-20.8,5.73,2.41,-24.8,28.1
2012-05-03 01:55:00,0.0,1.9187,0.0010,403.06,0.42,200.9,40.9,138.11,28.19,24.61,36.33,0.04,-272.74,-272.74,-54,558,-932,22.7,4.1,-21.2,22.8,4.2,-20.7,5.73,2.29,-24.8,28.2
2012-05-03 01:56:00,0.0,1.9187,0.0010,403.22,0.43,199.1,35.8,138.11,28.20,24.61,36.32,0.04,-272.74,-272.74,-53,558,-932,22.7,4.1,-21.2,22.9,4.2,-20.7,5.73,2.40,-24.7,28.2
2012-05-03 01:57:00,0.0,1.9188,0.0010,403.10,0.42,199.5,37.2,138.11,28.21,24.61,36.32,0.04,-272.73,-272.74,-54,558,-933,22.7,4.1,-21.2,22.9,4.2,-20.8,5.73,2.43,-24.7,28.3
2012-05-03 01:58:00,0.0,1.9188,0.0010,403.04,0.40,200.0,36.8,138.11,28.22,24.62,36.33,0.04,-272.73,-272.74,-54,558,-933,22.7,4.0,-21.3,22.9,4.2,-20.8,5.73,2.29,-24.7,28.3
2012-05-03 01:59:00,0.0,1.9192,0.0010,403.10,0.36,208.1,40.9,138.11,28.23,24.61,36.33,0.04,-272.74,-272.74,-54,558,-932,22.8,4.0,-21.3,22.9,4.2,-20.8,5.73,2.36,-24.6,28.3
2012-05-03 02:00:00,0.0,1.9188,0.0010,403.08,0.34,197.6,41.2,138.11,28.24,24.62,36.33,0.04,-272.74,-272.73,-54,558,-932,22.9,4.0,-21.3,23.0,4.2,-20.8,5.73,2.45,-24.6,28.4
2012-05-03 02:01:00,0.0,1.9190,0.0010,403.15,0.39,195.5,35.1,138.11,28.25,24.62,36.33,0.04,-272.74,-272.73,-54,558,-933,22.9,4.0,-21.3,23.0,4.2,-20.8,5.73,2.33,-24.6,28.4
2012-05-03 02:02:00,0.0,1.9193,0.0011,403.14,0.40,210.2,35.3,138.11,28.26,24.62,36.33,0.04,-272.73,-272.74,-54,559,-933,22.9,4.1,-21.1,23.0,4.2,-20.7,5.73,2.33,-24.6,28.0
2012-05-03 02:03:00,0.0,1.9187,0.0010,403.06,0.30,203.1,40.5,138.11,28.26,24.62,36.33,0.04,-272.73,-272.74,-54,559,-933,22.9,4.1,-21.0,23.0,4.2,-20.6,5.73,2.41,-24.7,27.4
2012-05-03 02:04:00,0.0,1.9187,0.0011,403.10,0.40,177.2,40.5,138.12,28.26,24.62,36.32,0.04,-272.73,-272.73,-54,559,-933,22.9,4.1,-21.1,23.0,4.2,-20.6,5.73,2.45,-24.9,26.9
2012-05-03 02:05:00,0.0,1.9181,0.0010,403.24,0.37,172.2,35.6,138.12,28.25,24.62,36.32,0.04,-272.74,-272.74,-54,559,-933,22.8,4.1,-21.1,22.9,4.3,-20.6,5.73,2.32,-25.1,26.5
2012-05-03 02:06:00,0.0,1.9176,0.0009,403.34,0.41,166.7,38.4,138.13,28.24,24.62,36.32,0.04,-272.73,-272.74,-54,559,-934,22.8,4.1,-21.1,22.9,4.2,-20.7,5.73,2.31,-25.2,26.2
2012-05-03 02:07:00,0.0,1.9172,0.0009,403.34,0.33,145.5,35.7,138.13,28.23,24.62,36.32,0.04,-272.74,-272.73,-54,559,-933,22.7,4.1,-21.3,22.8,4.2,-20.9,5.73,2.36,-25.4,25.9
2012-05-03 02:08:00,0.0,1.9166,0.0010,403.22,0.38,135.4,37.1,138.14,28.21,24.61,36.32,0.04,-272.74,-272.74,-55,558,-933,22.7,4.1,-21.2,22.7,4.2,-20.8,5.73,2.40,-25.6,25.7
2012-05-03 02:09:00,0.0,1.9158,0.0011,403.22,0.34,102.5,41.7,138.14,28.18,24.61,36.32,0.04,-272.74,-272.74,-55,559,-934,22.6,4.1,-21.1,22.7,4.3,-20.7,5.73,2.42,-25.7,25.6
2012-05-03 02:10:00,0.0,1.9149,0.0011,403.23,0.36,99.6,36.9,138.15,28.16,24.62,36.31,0.04,-272.74,-272.73,-55,558,-933,22.6,4.1,-21.2,22.6,4.2,-20.8,5.73,2.42,-25.7,25.4
2012-05-03 02:11:00,0.0,1.9146,0.0010,403.10,0.39,97.1,40.6,138.15,28.13,24.61,36.31,0.04,-272.74,-272.74,-55,558,-934,22.5,4.1,-21.2,22.5,4.3,-20.9,5.73,2.42,-25.9,25.6
2012-05-03 02:12:00,0.0,1.9140,0.0011,403.06,0.38,96.0,40.1,138.15,28.11,24.62,36.32,0.04,-272.74,-272.74,-55,558,-933,22.5,4.2,-21.1,22.5,4.3,-20.8,5.73,2.29,-26.0,26.1
2012-05-03 02:13:00,0.0,1.9138,0.0012,403.10,0.35,97.3,41.9,138.15,28.09,24.61,36.31,0.04,-272.74,-272.73,-55,557,-933,22.5,4.1,-21.3,22.5,4.3,-20.9,5.73,2.40,-25.9,26.5
2012-05-03 02:14:00,0.0,1.9140,0.0010,403.24,0.43,95.3,44.6,138.15,28.08,24.61,36.31,0.04,-272.74,-272.74,-54,557,-933,22.4,4.1,-21.3,22.5,4.3,-20.9,5.73,2.36,-25.8,26.8
2012-05-03 02:15:00,0.0,1.9143,0.0010,403.24,0.34,104.2,40.6,138.14,28.07,24.61,36.31,0.04,-272.74,-272.74,-55,557,-933,22.4,4.1,-21.3,22.5,4.3,-20.8,5.73,2.42,-25.8,26.9
2012-05-03 02:16:00,0.0,1.9144,0.0010,403.31,0.40,115.8,38.6,138.14,28.07,24.61,36.31,0.04,-272.74,-272.74,-54,557,-933,22.4,4.2,-21.1,22.5,4.3,-20.7,5.73,2.29,-25.7,27.1